Flight Track Log - Related Links

Times and Time Zones

All times are in EDT time to prevent confusion due to time zone crossing. See the PDT4309 flight status page for this flight to view local times or setup timezone preferences in your user account.

Time Position Orientation Groundspeed Altitude Reporting Facility
EDT Latitude Longitude Course Direction KTS MPH feet Rate Location/Type
Mon 08:10:00 PM 35.6386 -77.4578 287° West 230 265 3,400  Level Washington Center
Mon 08:10:58 PM 35.6589 -77.5067 297° West 190 219 4,800 1,400 Climbing Washington Center
Mon 08:11:00 PM 35.6739 -77.6383 292° West  Level FlightAware Approximate
Mon 08:12:00 PM 35.6858 -77.7009 280° West  Level FlightAware Approximate
Mon 08:12:00 PM 35.6872 -77.5561 305° West 176 203 6,200  Level Washington Center
Mon 08:13:00 PM 35.6959 -77.7711 280° West  Level FlightAware Approximate
Mon 08:13:00 PM 35.7072 -77.6078 296° West 171 197 7,500  Level Washington Center
Mon 08:13:58 PM 35.7272 -77.6594 296° West 165 190 8,800 1,261 Climbing Washington Center
Mon 08:14:00 PM 35.7061 -77.8409 287° West  Level FlightAware Approximate
Mon 08:14:59 PM 35.7450 -77.7111 293° West 165 190 10,000  Level Washington Center
Mon 08:15:59 PM 35.7608 -77.7653 290° West 165 190 10,900 843 Climbing Washington Center
Mon 08:17:00 PM 35.7764 -77.8219 289° West 171 197 11,700 550 Climbing Washington Center
Mon 08:17:59 PM 35.7900 -77.8839 285° West 176 203 12,000 231 Climbing Washington Center
Mon 08:18:18 PM 35.7875 -77.9042 261° West 195 224 12,000  Level Washington Center
Mon 08:18:46 PM 35.7908 -77.9428 276° West 208 239 12,000  Level Washington Center
Mon 08:19:42 PM 35.8000 -78.0094 280° West 214 246 12,000  Level Washington Center
Mon 08:20:00 PM 35.8039 -78.0250 287° West 208 239 12,000  Level Washington Center
Mon 08:20:37 PM 35.8069 -78.0764 274° West 214 246 12,000  Level Washington Center
Mon 08:20:58 PM 35.8106 -78.0994 281° West 218 251 12,000  Level Washington Center
Mon 08:21:44 PM 35.8136 -78.1533 274° West 214 246 12,000  Level Washington Center
Mon 08:22:00 PM 35.8175 -78.1714 285° West 218 251 12,000  Level Washington Center
Mon 08:22:43 PM 35.8164 -78.2228 268° West 215 247 12,000  Level Washington Center
Mon 08:22:58 PM 35.8242 -78.2433 295° West 218 251 12,000  Level Washington Center
Mon 08:23:43 PM 35.8250 -78.2972 271° West 216 249 12,000  Level Washington Center
Mon 08:23:59 PM 35.8308 -78.3178 289° West 218 251 12,000  Level Washington Center
Mon 08:24:38 PM 35.8278 -78.3664 266° West 215 247 12,000  Level Washington Center
Mon 08:24:59 PM 35.8292 -78.3922 274° West 218 251 12,000  Level Washington Center
Mon 08:26:00 PM 35.8275 -78.4614 268° West 213 245 12,000 -118 Level Washington Center
Mon 08:26:41 PM 35.8244 -78.5047 265° West 203 234 11,800 -610 Descending Washington Center
Mon 08:26:59 PM 35.8278 -78.5331 278° West 213 245 11,400 -1,241 Descending Washington Center
Mon 08:27:39 PM 35.8225 -78.5789 262° West 215 247 10,600 -1,279 Descending Washington Center
Mon 08:28:00 PM 35.8261 -78.6072 279° West 213 245 10,100 -590 Descending Washington Center
Mon 08:28:40 PM 35.8228 -78.6558 265° West 197 227 10,000 -60 Descending Washington Center
Mon 08:29:40 PM 35.8231 -78.7225 270° West 201 231 10,000  Level Washington Center
Mon 08:30:42 PM 35.8189 -78.7964 266° West 212 244 10,000  Level Washington Center
Mon 08:31:43 PM 35.8192 -78.8683 270° West 215 247 10,000  Level Washington Center
Mon 08:32:44 PM 35.8214 -78.9400 272° West 211 243 10,000  Level Washington Center
Mon 08:33:50 PM 35.8192 -79.0169 268° West 209 241 10,000  Level Washington Center
Mon 08:34:45 PM 35.8172 -79.0833 268° West 209 241 10,000  Level Washington Center
Mon 08:35:45 PM 35.8172 -79.1525 270° West 209 241 10,000 -213 Level Washington Center
Mon 08:37:00 PM 35.8171 -79.2397 270° West  Level FlightAware Approximate
Mon 08:44:00 PM 35.8004 -79.7279 270° West  Level FlightAware Approximate
Mon 08:45:00 PM 35.8005 -79.7977 270° West  Level FlightAware Approximate
Mon 08:46:00 PM 35.8006 -79.8674 270° West  Level FlightAware Approximate
Mon 08:47:00 PM 35.8007 -79.9372 270° West  Level FlightAware Approximate
Mon 08:47:54 PM 35.8033 -80.0419 270° West 229 264 7,200  Level Atlanta Center
Mon 08:48:00 PM 35.8007 -80.0069 270° West  Level FlightAware Approximate
Mon 08:48:49 PM 35.7869 -80.1144 254° West 239 275 6,700  Level Atlanta Center
Mon 08:49:00 PM 35.8007 -80.0767 270° West  Level FlightAware Approximate
Mon 08:49:50 PM 35.7558 -80.1825 241° Southwest 239 275 6,200  Level Atlanta Center
Mon 08:50:00 PM 35.8006 -80.1464 270° West  Level FlightAware Approximate
Mon 08:50:51 PM 35.7139 -80.2483 232° Southwest 238 274 5,900  Level Atlanta Center
Mon 08:51:00 PM 35.8005 -80.2162 270° West  Level FlightAware Approximate
Mon 08:51:52 PM 35.6697 -80.3014 224° Southwest 227 261 5,900  Level Atlanta Center
Mon 08:52:00 PM 35.8004 -80.2859 270° West  Level FlightAware Approximate
Mon 08:52:53 PM 35.6319 -80.3619 233° Southwest 223 257 6,000  Level Atlanta Center
Mon 08:53:00 PM 35.8002 -80.3557 270° West  Level FlightAware Approximate
Mon 08:53:53 PM 35.5878 -80.4228 228° Southwest 224 258 6,000  Level Atlanta Center
Mon 08:54:54 PM 35.5456 -80.4808 228° Southwest 227 261 6,000 -49 Level Atlanta Center
Mon 08:55:55 PM 35.5058 -80.5436 232° Southwest 229 264 5,900 -49 Descending Atlanta Center
Mon 08:56:56 PM 35.4636 -80.6017 228° Southwest 231 266 5,900  Level Atlanta Center
Mon 08:57:57 PM 35.4214 -80.6594 228° Southwest 230 265 5,900 -443 Level Atlanta Center
Mon 08:58:58 PM 35.3731 -80.7250 228° Southwest 237 273 5,000 -1,033 Descending Atlanta Center
Mon 08:59:59 PM 35.3350 -80.7800 230° Southwest 221 254 3,800 -1,041 Descending Atlanta Center
Mon 09:00:59 PM 35.3008 -80.8297 230° Southwest 175 201 2,900 -900 Descending Atlanta Center

Login

Don't have an account? Register now (free) for customized features, flight alerts, and more!